User: anonymous   Login
Location: *
(44.1392°N, 4.8079°E)
Time: 00:47:01
(UTC+00:00)
Language:

DELTA 2 R/B (1) - Orbit

View from above orbital plane
View from above orbital plane
View from above satellite
View from above satellite

Ground track
Ground track

The orbit data is extracted from the following two-line orbital elements,

1 27665U 03005C   21260.37791765 -.00000072  00000-0  51735-5 0  9996
2 27665  39.5753 120.9634 0010220 281.6753 246.3620 14.28562649972998
Epoch (UTC): 17 September 2021 09:04:12
Eccentricity: 0.0010220
inclination: 39.5753°
perigee height: 789 km
apogee height: 804 km
right ascension of ascending node: 120.9634°
argument of perigee: 281.6753°
revolutions per day: 14.28562649
mean anomaly at epoch: 246.3620°
orbit number at epoch: 97299

The dashed part of the orbit path shows where the satellite is in the earth's shadow,  

DLR